Location: Newark
(48.5178°N, 4.2361°E)
Time: 02:03:43
(UTC+00:00)

Envisat - Pass Details

Date: 12 March 2021
Orbit: 764 x 766 km, 98.1° (Epoch: 11 April)

Event Time Altitude Azimuth Distance (km) Brightness Sun altitude
Rises 04:23:26 0° 24° (NNE) 3,243 6.8 -17.1°
Reaches altitude 10° 04:26:12 10° 39° (NE) 2,312 6.3 -16.6°
Maximum altitude 04:30:15 23° 92° (E) 1,572 5.5 -16.0°
Drops below altitude 10° 04:34:16 10° 144° (SE) 2,297 5.8 -15.3°
Sets 04:37:00 0° 159° (SSE) 3,217 6.3 -14.9°
